Meteo Giornale » Osservazioni meteo Stati Uniti (USA) » Shirley Brookhaven

ore: 21:56 - Osservazioni Meteo Shirley Brookhaven
Lat. 40° 49' N Lon. 72° 52' W Alt. 25 metri s.l.m.

coperto

22 °C

Coperto

Temp. 24 Ore

19 °C

24 °C

Sud/Sud-Est

7.4 Km/h

Dew point 19 °C

Umidità 83 %

Visibilità  10 Km

Il sole sorge alle ore 06:17

Il sole tramonta alle ore 19:25

Data e Ora Cielo e Fenomeni T °C DP °C Um. % Pres. hPa Vis. km Vento km/h
Oggi h: 21:56 coperto Coperto 22 19 83 1019 10 S/SE 7.4
Oggi h: 20:56 coperto Coperto 22 18 78 1019 10 N 5.5
Oggi h: 19:56 coperto Coperto 22 18 78 1018 10 N 5.5
Oggi h: 18:56 coperto Coperto 22 17 73 1019 10 N 5.5
Oggi h: 17:56 molto_nuvoloso Molto Nuvoloso 22 17 73 1019 10 N 7.4
Oggi h: 16:56 sereno Sereno 22 17 73 1019 10 S/SE 11.1
Oggi h: 15:56 sereno Sereno 23 17 68 1019 10 S/SE 14.8
Oggi h: 14:56 molto_nuvoloso Molto Nuvoloso 24 17 64 1020 10 S 20.3
Oggi h: 13:56 sereno Sereno 24 18 69 1020 10 SE 11.1
Oggi h: 12:56 sereno Sereno 23 17 68 1020 10 SE 13
Oggi h: 11:56 poco_nuvoloso Poco Nuvoloso 24 17 64 1020 10 S/SE 20.3
Oggi h: 10:56 sereno Sereno 24 17 64 1020 10 E/SE 7.4
Oggi h: 09:56 sereno Sereno 23 17 68 1020 10 E/NE 7.4
Oggi h: 08:56 sereno Sereno 22 18 78 1020 10 N 7.4
Oggi h: 07:56 sereno Sereno 21 18 82 1020 10 N 7.4
Oggi h: 06:56 nuvoloso Nuvoloso 19 17 88 1019 10 N 5.5
Oggi h: 05:56 molto_nuvoloso Molto Nuvoloso 20 17 82 1019 10 N 13
Oggi h: 04:56 nuvoloso Nuvoloso 20 17 82 1019 10 N 11.1
Oggi h: 02:56 coperto Coperto 22 21 94 1018 10 N 5.5
Oggi h: 01:56 coperto Coperto 22 21 94 1018 10 N 0
Ieri h: 23:56 coperto_pioggia Pioggia 22 22 100 1018 10 N 0
Ieri h: 22:56 coperto Coperto 23 22 94 1019 10 N 5.5